This demonstration page uses our WeatherBlox Daily Observations layout. Learn more.

38.88101, -77.10428

Hourly Observations for December 16, 2018

Temp ( °F °C ) Dew Point ( °F °C ) Humidity (%) Winds ( mph kmh ) Pressure ( in mb ) Visibility ( mi km ) Precip ( " mm )
12:05 am 00:05 Cloudy with Light Rain 50 10 48 8.9 93 93 N 9 15 29.91 1013 2.5 4.02335 0.02 0.508
12:52 am 00:52 Cloudy with Rain 50 10 47 8.3 89 89 N 13 20 29.89 1012 2.5 4.02335 0.08 2.032
12:55 am 00:55 Cloudy with Rain 50 10 47 8.3 89 89 N 13 20 29.88 1012 3 4.82802 0.01 0.254
1:15 am 01:15 Cloudy with Light Rain 50 10 47 8.3 89 89 NNE 14 22 29.88 1012 7 11.26538 0.01 0.254
1:31 am 01:31 Cloudy with Light Rain 50 10 47 8.3 89 89 NNE 14 22 29.88 1012 7 11.26538 0.01 0.254
1:52 am 01:52 Cloudy with Light Rain 50 10 47 8.3 89 89 NNE 10 17 29.88 1012 5 8.0467 0.02 0.508
2:52 am 02:52 Cloudy with Light Drizzle 50 10 47 8.3 89 89 NNE 12 19 29.89 1012 3 4.82802 0 0.0254
2:59 am 02:59 Cloudy with Light Drizzle 50 10 47 8.3 89 89 NNE 10 17 29.88 1012 2.5 4.02335 0 0.0254
3:13 am 03:13 Cloudy with Light Drizzle 50 10 47 8.3 89 89 NNE 13 20 29.88 1012 3 4.82802 0.01 0.254
3:52 am 03:52 Cloudy with Light Drizzle 50 10 47 8.3 89 89 NNE 10 17 29.88 1012 3 4.82802 0.01 0.254
4:38 am 04:38 Cloudy with Light Drizzle 49 9.4 46 7.8 90 90 NE 14 22 29.88 1012 4 6.43736 0.01 0.254
4:52 am 04:52 Cloudy with Light Drizzle 49 9.4 46 7.8 90 90 NE 14 22 29.87 1012 4 6.43736 0.01 0.254
5:12 am 05:12 Cloudy with Light Drizzle 48 8.9 45 7.2 89 89 NE 15 24 29.88 1012 3 4.82802 0 0.0254
5:27 am 05:27 Cloudy with Light Drizzle 48 8.9 45 7.2 89 89 NE 13 20 29.88 1012 3 4.82802 0 0.0254
5:52 am 05:52 Cloudy with Light Drizzle 48 8.9 44 6.7 86 86 NNE 8 13 29.87 1012 2.5 4.02335 0 0.0254
6:27 am 06:27 Cloudy with Light Drizzle 47 8.3 44 6.7 90 90 NNE 10 17 29.88 1012 2.5 4.02335 0.01 0.254
6:36 am 06:36 Cloudy with Light Drizzle 47 8.3 44 6.7 90 90 NNE 10 17 29.88 1012 2 3.21868 0.02 0.508
6:52 am 06:52 Cloudy with Light Drizzle 47 8.3 44 6.7 90 90 NNE 12 19 29.88 1012 2 3.21868 0.02 0.508
7:36 am 07:36 Cloudy with Light Drizzle 47 8.3 44 6.7 90 90 N 12 19 29.88 1012 1.75 2.816345 0.01 0.254
7:52 am 07:52 Cloudy with Light Drizzle 47 8.3 44 6.7 90 90 N 13 20 29.88 1012 1.5 2.41401 0.01 0.254
8:33 am 08:33 Cloudy with Light Drizzle 46 7.8 44 6.7 93 93 N 10 17 29.88 1012 2 3.21868 0.01 0.254
8:52 am 08:52 Cloudy with Light Drizzle 46 7.8 43 6.1 89 89 N 15 24 29.88 1012 2.5 4.02335 0.01 0.254
9:06 am 09:06 Cloudy with Light Drizzle 46 7.8 43 6.1 89 89 N 13 20 29.88 1012 4 6.43736 0.01 0.254
9:52 am 09:52 Cloudy with Light Drizzle 46 7.8 43 6.1 89 89 N 14 22 29.88 1012 3 4.82802 0.02 0.508
10:20 am 10:20 Cloudy with Heavy Rain 46 7.8 42 5.6 86 86 NNE 14 22 29.88 1012 2.5 4.02335 0.07 1.778
10:31 am 10:31 Cloudy with Rain 46 7.8 42 5.6 86 86 N 12 19 29.88 1012 4 6.43736 0.1 2.54
10:45 am 10:45 Cloudy with Heavy Rain 46 7.8 43 6.1 89 89 N 15 24 29.88 1012 4 6.43736 0.14 3.556
10:52 am 10:52 Cloudy with Heavy Rain 46 7.8 42 5.6 86 86 N 13 20 29.87 1011 4 6.43736 0.17 4.318
11:52 am 11:52 Cloudy with Rain 45 7.2 42 5.6 90 90 N 12 19 29.84 1011 7 11.26538 0.14 3.556
12:52 pm 12:52 Cloudy with Rain 45 7.2 41 5 86 86 NNW 14 22 29.83 1010 8 12.87472 0.09 2.286
1:36 pm 13:36 Cloudy with Light Rain 46 7.8 42 5.6 86 86 NNW 14 22 29.83 1010 10 16.0934 0.02 0.508
1:52 pm 13:52 Cloudy with Light Rain 46 7.8 42 5.6 86 86 N 15 24 29.83 1010 10 16.0934 0.03 0.762
2:35 pm 14:35 Cloudy 46 7.8 41 5 83 83 NW 15 24 29.83 1010 10 16.0934 0 0.0254
2:52 pm 14:52 Cloudy 45 7.2 41 5 86 86 NNW 13 20 29.84 1011 10 16.0934 0 0.0254
3:52 pm 15:52 Cloudy 45 7.2 40 4.4 83 83 NNW 12 19 29.87 1011 10 16.0934 0 0
4:31 pm 16:31 Cloudy 44 6.7 39 3.9 83 83 NNW 15 24 29.88 1012 10 16.0934 0 0
4:52 pm 16:52 Cloudy 44 6.7 39 3.9 83 83 NNW 12 19 29.88 1012 10 16.0934 0 0
5:11 pm 17:11 Cloudy 44 6.7 39 3.9 83 83 NW 13 20 29.88 1012 10 16.0934 0 0
5:50 pm 17:50 Cloudy 45 7 37 3 76 76 NNW 13 20 29.91 1013 10 16.0934 0 0
5:52 pm 17:52 Cloudy 44 6.7 38 3.3 79 79 NNW 13 20 29.89 1012 10 16.0934 0 0
6:13 pm 18:13 Cloudy 44 6.7 38 3.3 79 79 NW 13 20 29.91 1013 10 16.0934 0 0
6:32 pm 18:32 Cloudy 44 6.7 38 3.3 79 79 NW 15 24 29.91 1013 10 16.0934 0 0
6:52 pm 18:52 Cloudy 44 6.7 38 3.3 79 79 NW 13 20 29.92 1013 10 16.0934 0 0
8:03 pm 20:03 Cloudy 43 6.1 37 2.8 80 80 N 12 19 29.94 1014 10 16.0934 0 0
8:21 pm 20:21 Cloudy 44 6.7 37 2.8 76 76 NNW 9 15 29.94 1014 10 16.0934 0 0
8:30 pm 20:30 Cloudy 44 6.7 37 2.8 76 76 NNW 10 17 29.91 1013 10 16.0934 0 0
9:52 pm 21:52 Cloudy 44 6.7 37 2.8 76 76 VRB 5 7 29.92 1013 10 16.0934 0 0
10:52 pm 22:52 Mostly Cloudy 43 6.1 36 2.2 76 76 NW 8 13 29.93 1014 10 16.0934 0 0
11:52 pm 23:52 Cloudy 44 6.7 37 2.8 76 76 NW 5 7 29.91 1013 10 16.0934 0 0

Powered by AerisWeather